Olympia, WA

12:25 AM PDT on April 30, 2017 (GMT -0700)
Olympia

Weather History for KOLM - October, 2013

Change the Weather History Date:

Saturday, October 19, 2013

  Actual Average Record
Temperature  
Mean Temperature 45 °F 49 °F  
Max Temperature 50 °F 59 °F 73 °F (2014)
Min Temperature 40 °F 40 °F 21 °F (1976)
Degree Days  
Heating Degree Days 20 16  
Month to date heating degree days 298 249  
Since 1 July heating degree days 517 589  
Cooling Degree Days 0 0  
Month to date cooling degree days 0 0  
Year to date cooling degree days 147 106  
Moisture  
Dew Point 45 °F    
Average Humidity 97    
Maximum Humidity 100    
Minimum Humidity 93    
Precipitation  
Precipitation 0.00 in 0.16 in 1.26 in (2007)
Month to date precipitation 1.93 2.26  
Year to date precipitation 34.55 31.57  
Sea Level Pressure  
Sea Level Pressure 30.18 in    
Wind  
Wind Speed 3 mph (NE)    
Max Wind Speed 8 mph    
Max Gust Speed 10 mph    
Visibility 2 miles    
Events Fog    
T = Trace of Precipitation, MM = Missing Value Source: NWS Daily Summary

Daily Weather History Graph

Daily Weather History Graph

Search for Another Location

Airport or City:

Trip Planner

Search our weather history database for the weather conditions in past years. The results will help you decide how hot, cold, wet, or windy it might be!

Date:

Astronomy

Oct. 19, 2013 Rise Set
Actual Time 7:35 AM PDT 6:16 PM PDT
Civil Twilight 7:04 AM PDT 6:47 PM PDT
Nautical Twilight 6:29 AM PDT 7:22 PM PDT
Astronomical Twilight 5:54 AM PDT 7:57 PM PDT
Moon 6:42 PM PDT (10/19) 8:23 AM PDT (10/19)
Length of Visible Light 11h 42m
Length of Day
10h 40m
Full, 99% of the Moon is Illuminated
Oct 19
Full
Oct 26
Last Quarter
Nov 3
New
Nov 9
First Quarter
Nov 17
Full

Hourly Weather History & Observations

Time (PDT) Temp. Windchill Dew Point Humidity Pressure Visibility Wind Dir Wind Speed Gust Speed Precip Events Conditions
12:54 AM 39.9 °F 37.8 °F 39.0 °F 97% 30.17 in 0.2 mi ESE 3.5 mph - N/A Fog Fog
1:54 AM 41.0 °F - 39.9 °F 96% 30.17 in 0.2 mi Calm Calm - N/A Fog Fog
2:54 AM 42.1 °F - 41.0 °F 96% 30.17 in 0.2 mi Calm Calm - N/A Fog Fog
3:54 AM 42.1 °F - 42.1 °F 100% 30.16 in 0.2 mi Calm Calm - N/A Fog Fog
4:54 AM 41.0 °F - 41.0 °F 100% 30.17 in 0.2 mi Calm Calm - N/A Fog Fog
5:54 AM 41.0 °F - 41.0 °F 100% 30.17 in 0.2 mi Calm Calm - N/A Fog Fog
6:54 AM 42.1 °F - 42.1 °F 100% 30.17 in 0.2 mi Calm Calm - N/A Fog Fog
7:54 AM 42.1 °F - 42.1 °F 100% 30.17 in 0.2 mi Calm Calm - N/A Fog Fog
8:54 AM 43.0 °F - 43.0 °F 100% 30.18 in 0.2 mi Calm Calm - N/A Fog Fog
9:54 AM 45.0 °F 43.5 °F 44.1 °F 97% 30.19 in 0.2 mi ENE 3.5 mph - N/A Fog Fog
10:54 AM 45.0 °F 43.5 °F 45.0 °F 100% 30.19 in 0.2 mi ENE 3.5 mph - N/A Fog Fog
11:54 AM 46.9 °F - 46.0 °F 97% 30.19 in 1.0 mi NE 4.6 mph - N/A   Overcast
12:54 PM 46.9 °F - 46.9 °F 100% 30.19 in 1.0 mi Calm Calm - N/A   Overcast
1:19 PM 48.0 °F - 46.9 °F 96% 30.18 in 1.8 mi NNE 4.6 mph - N/A   Overcast
1:37 PM 48.0 °F - 46.9 °F 96% 30.18 in 2.0 mi North 5.8 mph - N/A   Overcast
1:54 PM 48.0 °F - 46.9 °F 96% 30.18 in 2.5 mi North 5.8 mph - N/A   Overcast
2:01 PM 48.0 °F - 46.9 °F 96% 30.18 in 4.0 mi NE 4.6 mph - N/A   Overcast
2:54 PM 48.0 °F - 46.9 °F 96% 30.17 in 3.0 mi North 4.6 mph - N/A   Overcast
3:54 PM 48.9 °F - 46.9 °F 93% 30.17 in 3.0 mi ENE 6.9 mph - N/A   Overcast
4:33 PM 48.9 °F - 46.9 °F 93% 30.17 in 2.5 mi NNE 5.8 mph - N/A   Overcast
4:54 PM 48.9 °F - 48.0 °F 97% 30.18 in 2.5 mi Variable 3.5 mph - N/A   Overcast
5:54 PM 48.9 °F - 46.9 °F 93% 30.17 in 2.5 mi North 4.6 mph - N/A   Overcast
6:23 PM 48.0 °F - 46.9 °F 96% 30.16 in 4.0 mi NE 4.6 mph - N/A   Overcast
6:54 PM 48.0 °F - 46.0 °F 93% 30.18 in 4.0 mi NE 5.8 mph - N/A   Overcast
7:54 PM 46.9 °F - 46.0 °F 97% 30.19 in 3.0 mi NNE 4.6 mph - N/A   Overcast
8:54 PM 46.9 °F - 46.0 °F 97% 30.19 in 3.0 mi NE 6.9 mph - N/A   Overcast
9:01 PM 46.9 °F - 46.0 °F 97% 30.19 in 3.0 mi NNE 6.9 mph - N/A   Overcast
9:11 PM 46.9 °F - 46.0 °F 97% 30.19 in 2.5 mi ENE 4.6 mph - N/A   Overcast
9:54 PM 46.0 °F 43.1 °F 46.0 °F 100% 30.20 in 1.2 mi NE 5.8 mph - N/A   Overcast
10:28 PM 46.9 °F - 46.0 °F 97% 30.20 in 1.5 mi ENE 4.6 mph - N/A   Overcast
10:54 PM 46.0 °F 43.9 °F 46.0 °F 100% 30.20 in 1.2 mi NE 4.6 mph - N/A   Overcast
11:54 PM 46.0 °F 43.9 °F 46.0 °F 100% 30.20 in 0.8 mi NE 4.6 mph - N/A   Overcast